This demonstration page uses our WeatherBlox Daily Observations layout. Learn more.

Left ArrowRight Arrow

Hourly Observations for August 6, 2018

Temp ( °F °C ) Dew Point ( °F °C ) Humidity (%) Winds ( mph kmh ) Pressure ( in mb ) Visibility ( mi km ) Precip ( " mm )
12:15 am 00:15 Clear 69 20.8 69 20.6 99 99 Calm 30.12 1020 10 16 0.00 0.00
12:35 am 00:35 Clear 68 20.2 68 20.2 100 100 Calm 30.12 1020 10 16 0.00 0.00
12:55 am 00:55 Clear 70 21 70 20.9 99 99 Calm 30.12 1020 10 16 0.00 0.00
1:15 am 01:15 Clear 71 21.5 70 21 97 97 SSW 5 7 30.12 1020 10 16 0.00 0.00
1:35 am 01:35 Clear 71 21.6 70 21.2 98 98 S 5 7 30.12 1020 10 16 0.00 0.00
1:55 am 01:55 Clear 71 21.6 71 21.5 99 99 SSW 5 7 30.12 1020 10 16 0.00 0.00
2:15 am 02:15 Clear 72 22.2 71 21.8 98 98 S 6 9 30.12 1020 10 16 0.00 0.00
2:35 am 02:35 Clear 72 22.1 71 21.7 98 98 S 7 11 30.06 1018 10 16 0.00 0.00
2:55 am 02:55 Clear 72 22.1 71 21.7 98 98 SSW 6 9 30.06 1018 10 16 0.00 0.00
3:15 am 03:15 Clear 72 22.2 71 21.6 96 96 SSW 5 7 30.06 1018 10 16 0.00 0.00
3:35 am 03:35 Clear 71 21.7 70 21.2 97 97 SSW 3 6 30.09 1019 10 16 0.00 0.00
3:55 am 03:55 Clear 71 21.5 70 21 97 97 Calm 30.09 1019 10 16 0.00 0.00
4:15 am 04:15 Clear 70 21.3 70 20.9 98 98 SSW 3 6 30.09 1019 10 16 0.00 0.00
4:35 am 04:35 Clear 70 21 69 20.7 98 98 SSW 5 7 30.09 1019 10 16 0.00 0.00
4:55 am 04:55 Clear 70 21 69 20.7 98 98 SW 3 6 30.12 1020 10 16 0.00 0.00
5:15 am 05:15 Clear 70 21 69 20.7 98 98 SSW 3 6 30.09 1019 10 16 0.00 0.00
5:35 am 05:35 Clear 70 20.9 69 20.6 98 98 S 3 6 30.09 1019 10 16 0.00 0.00
5:55 am 05:55 Clear 69 20.3 68 20.2 99 99 S 5 7 30.09 1019 10 16 0.00 0.00
6:15 am 06:15 Clear 69 20.5 69 20.5 100 100 S 5 7 30.09 1019 10 16 0.00 0.00
6:35 am 06:35 Clear 69 20.6 69 20.6 100 100 SSW 5 7 30.09 1019 10 16 0.00 0.00
6:55 am 06:55 Sunny 70 20.9 69 20.7 99 99 SSW 5 7 30.09 1019 10 16 0.00 0.00
7:15 am 07:15 Sunny 69 20.5 69 20.5 100 100 S 5 7 30.09 1019 10 16 0.00 0.00
7:35 am 07:35 Sunny 70 21.3 70 21.1 99 99 SSW 5 7 30.09 1019 10 16 0.00 0.00
7:55 am 07:55 Sunny 71 21.6 70 21.2 98 98 SSW 6 9 30.09 1019 10 16 0.00 0.00
8:15 am 08:15 Sunny 72 22 71 21.6 98 98 S 5 7 30.09 1019 10 16 0.00 0.00
8:35 am 08:35 Sunny 73 22.6 71 21.8 95 95 S 6 9 30.06 1018 10 16 0.00 0.00
8:55 am 08:55 Sunny 74 23.2 72 22.1 94 94 SSW 5 7 30.09 1019 10 16 0.00 0.00
9:15 am 09:15 Sunny 75 23.8 72 22.4 92 92 SSW 6 9 30.09 1019 10 16 0.00 0.00
9:35 am 09:35 Sunny 76 24.5 73 22.7 90 90 SSW 5 7 30.06 1018 10 16 0.00 0.00
9:55 am 09:55 Sunny 77 25.2 72 22.3 84 84 SW 8 13 30.06 1018 10 16 0.00 0.00
10:15 am 10:15 Sunny 78 25.7 73 22.5 83 83 SW 9 15 30.06 1018 10 16 0.00 0.00
10:35 am 10:35 Sunny 79 26.1 73 22.7 82 82 S 8 13 30.06 1018 10 16 0.00 0.00
10:55 am 10:55 Sunny 80 26.7 73 22.9 80 80 S 7 11 30.06 1018 10 16 0.00 0.00
11:15 am 11:15 Sunny 81 27 73 22.9 78 78 SSW 8 13 30.06 1018 10 16 0.00 0.00
11:35 am 11:35 Sunny 82 27.5 73 22.7 75 75 SSW 10 17 30.06 1018 10 16 0.00 0.00
11:55 am 11:55 Sunny 82 27.9 73 23 75 75 SSW 8 13 30.06 1018 10 16 0.00 0.00
12:15 pm 12:15 Sunny 84 28.7 75 23.8 75 75 SSW 9 15 30.06 1018 10 16 0.00 0.00
12:35 pm 12:35 Sunny 83 28.6 74 23.1 72 72 SSW 15 24 30.06 1018 10 16 0.00 0.00
12:55 pm 12:55 Sunny 84 28.7 74 23.2 72 72 SSW 14 22 30.06 1018 10 16 0.00 0.00
1:15 pm 13:15 Sunny 85 29.3 75 23.9 73 73 SSW 12 19 30.06 1018 10 16 0.00 0.00
1:35 pm 13:35 Sunny 85 29.2 74 23.4 71 71 S 12 19 30.03 1017 10 16 0.00 0.00
1:55 pm 13:55 Partly Cloudy 85 29.7 75 23.9 71 71 SSW 12 19 30.03 1017 10 16 0.00 0.00
2:15 pm 14:15 Partly Cloudy 85 29.4 74 23.5 71 71 SSW 13 20 30.03 1017 10 16 0.00 0.00
2:35 pm 14:35 Partly Cloudy 84 29.1 74 23.4 71 71 SW 12 19 30.03 1017 10 16 0.00 0.00
2:55 pm 14:55 Partly Cloudy 85 29.6 74 23.3 69 69 SSW 13 20 30.03 1017 10 16 0.00 0.00
3:15 pm 15:15 Partly Cloudy 87 30.4 75 23.9 68 68 SSW 13 20 30.03 1017 10 16 0.00 0.00
3:35 pm 15:35 Partly Cloudy 85 29.4 74 23.4 70 70 SSW 14 22 30.03 1017 10 16 0.00 0.00
3:55 pm 15:55 Partly Cloudy 86 30.1 75 23.7 69 69 SSW 15 24 30.00 1016 10 16 0.00 0.00
4:15 pm 16:15 Partly Cloudy 86 29.8 75 23.9 71 71 SSW 12 19 30.00 1016 10 16 0.00 0.00
4:35 pm 16:35 Mostly Cloudy 85 29.7 75 23.8 71 71 SSW 13 20 30.00 1016 10 16 0.00 0.00
4:55 pm 16:55 Partly Cloudy 85 29.5 75 23.7 71 71 SW 12 19 30.00 1016 10 16 0.00 0.00
5:15 pm 17:15 Partly Cloudy 84 29 74 23.6 73 73 SW 9 15 30.00 1016 10 16 0.00 0.00
5:35 pm 17:35 Partly Cloudy 84 29.1 75 23.7 73 73 WSW 9 15 30.00 1016 10 16 0.00 0.00
5:55 pm 17:55 Sunny 84 29.1 75 23.9 74 74 SW 10 17 30.00 1016 10 16 0.00 0.00
6:15 pm 18:15 Sunny 85 29.5 76 24.2 73 73 WSW 9 15 30.00 1016 10 16 0.00 0.00
6:35 pm 18:35 Sunny 84 29 75 23.7 73 73 WSW 12 19 30.00 1016 10 16 0.00 0.00
6:55 pm 18:55 Sunny 84 28.9 74 23.2 71 71 SW 9 15 29.97 1015 10 16 0.00 0.00
7:15 pm 19:15 Sunny 83 28.5 74 23.4 74 74 SW 10 17 29.97 1015 10 16 0.00 0.00
7:35 pm 19:35 Sunny 83 28.5 74 23.6 75 75 SSW 13 20 29.94 1014 10 16 0.00 0.00
7:55 pm 19:55 Sunny 82 27.9 74 23.5 77 77 SW 8 13 29.97 1015 10 16 0.00 0.00
8:15 pm 20:15 Sunny 81 27.1 74 23.6 81 81 SSW 7 11 29.97 1015 10 16 0.00 0.00
8:35 pm 20:35 Sunny 80 26.5 74 23.5 84 84 SSW 8 13 29.97 1015 10 16 0.00 0.00
8:55 pm 20:55 Clear 79 26.1 74 23.6 86 86 SSW 7 11 29.97 1015 10 16 0.00 0.00
9:15 pm 21:15 Clear 77 25.2 75 23.7 91 91 S 7 11 29.97 1015 10 16 0.00 0.00
9:35 pm 21:35 Clear 78 25.6 75 24 91 91 SSW 7 11 29.97 1015 10 16 0.00 0.00
9:55 pm 21:55 Clear 78 25.6 75 24 91 91 S 7 11 29.97 1015 10 16 0.00 0.00
10:15 pm 22:15 Clear 78 25.8 75 24 90 90 SSW 7 11 30.00 1016 10 16 0.00 0.00
10:35 pm 22:35 Partly Cloudy 78 25.8 75 23.9 89 89 SSW 5 7 30.03 1017 10 16 0.00 0.00
10:55 pm 22:55 Partly Cloudy 77 25.1 75 23.8 93 93 SSW 5 7 30.00 1016 10 16 0.00 0.00
11:15 pm 23:15 Mostly Cloudy 74 23.6 69 20.4 82 82 N 14 22 30.00 1016 10 16 0.00 0.00
11:35 pm 23:35 Cloudy with Nearby Thunderstorms 72 22.2 66 19 82 82 NNW 9 15 30.00 1016 10 16 0.00 0.00
11:55 pm 23:55 Cloudy with Strong Thunderstorms 70 21.2 66 19.1 88 88 NE 9 15 30.03 1017 2 3 0.35 8.89

Powered by AerisWeather